Regional Weather Roundup
Issued by NWS

Home | Current Version | Previous Version | Text Only | Print | Product List | Glossary On
Versions: 1 2 3 4 5 6 7 8 9 10 11 12 13 14 15 16 17 18 19 20 21 22 23 24 25 26 27 28 29 30 31 32 33 34 35 36 37 38 39 40 41 42 43 44 45 46 47 48 49 50
000
ASUS43 KIND 221809
RWRIN

WEATHER ROUNDUP FOR INDIANA
NATIONAL WEATHER SERVICE INDIANAPOLIS IN
200 PM EDT TUE JUL 22 2014

NOTE: "FAIR" INDICATES FEW OR NO CLOUDS BELOW 12,000 FEET WITH NO
SIGNIFICANT WEATHER AND/OR OBSTRUCTIONS TO VISIBILITY.

* - STATION DOES NOT REPORT WEATHER SUCH AS PRECIPITATION OR FOG.

+ - STATION NOT QUALITY CONTROLLED BY THE NATIONAL WEATHER SERVICE.
    USE DATA WITH CAUTION...ESPECIALLY DEWPOINT AND RELATIVE
    HUMIDITY OBSERVATIONS.

INZ001>003-010>013-019-020-221900-
NORTHWEST INDIANA

CITY           SKY/WX    TMP DP  RH WIND       PRES   REMARKS
GARY /AIRPORT/ PTSUNNY   86  68  54 SW12G23   30.01F
KNOX *+        SUNNY     83  66  55 SW8G17    30.04S
LA PORTE +     MOSUNNY   83  67  58 SW12      30.04F
6HR MIN TEMP:  66; 6HR MAX TEMP:  83;

MICHIGAN CITY+ SUNNY     82  66  57 S10G16    30.03F
MONTICELLO +   MOSUNNY   83  69  64 SW12      30.05F
RENSSELAER +   SUNNY     82  72  69 SW8       30.05F
VALPARAISO     SUNNY     84  67  56 SW14      30.04F
6HR MIN TEMP:  67; 6HR MAX TEMP:  84;


$$

LMZ046-743>745-221900-
SOUTHERN LAKE MICHIGAN

STATION/POSITION TIME  TEMP WIND        PRES
                       AIR  DIR/SP/G
                 (UTC) (F)  (DEG/KT/KT) (MB)
BURNS HARBOR     1700   80  210/ 12/ 19 1017.3S
MICHIGAN CITY    1800   80  190/ 13/ 16   N/A

$$

INZ004-005-014>016-021>024-221900-
NORTH CENTRAL INDIANA

CITY           SKY/WX    TMP DP  RH WIND       PRES   REMARKS
GOSHEN         MOSUNNY   86  67  52 SW14      30.05S
6HR MIN TEMP:  69; 6HR MAX TEMP:  87;

LOGANSPORT +   SUNNY     86  64  48 SW13      30.08S
PERU/GRISSOM   MOSUNNY   86  70  57 W16       30.07F
6HR MIN TEMP:  68; 6HR MAX TEMP:  86;

ROCHESTER +    SUNNY     88  64  45 SW12      30.07S
SOUTH BEND     MOSUNNY   86  67  52 SW12      30.04F
6HR MIN TEMP:  70; 6HR MAX TEMP:  86;

WARSAW +       MOSUNNY   86  66  51 W8        30.06S

$$

INZ006>009-017-018-025>027-221900-
NORTHEAST INDIANA

CITY           SKY/WX    TMP DP  RH WIND       PRES   REMARKS
ANGOLA *+      MOSUNNY   88  66  48 SW13      30.05S
AUBURN +       SUNNY     88  61  40 S9        30.06S
FORT WAYNE     MOSUNNY   87  65  47 SW14G21   30.06F
6HR MIN TEMP:  67; 6HR MAX TEMP:  87;

HUNTINGTON +   PTSUNNY   85  67  53 SW8       30.06S
6HR MIN TEMP:  68; 6HR MAX TEMP:  86;


$$

INZ028-029-035-036-043>045-051>053-221900-
WEST CENTRAL INDIANA

CITY           SKY/WX    TMP DP  RH WIND       PRES   REMARKS
GREENCASTLE +  SUNNY     82  70  65 SW5       30.09S
LAFAYETTE      SUNNY     84  68  58 SW9       30.05F
6HR MIN TEMP:  67; 6HR MAX TEMP:  84;

TERRE HAUTE    SUNNY     86  69  56 SW8       30.08S
6HR MIN TEMP:  66; 6HR MAX TEMP:  86;


$$

INZ030>032-037>040-046>048-054>057-064-065-221900-
CENTRAL INDIANA

CITY           SKY/WX    TMP DP  RH WIND       PRES   REMARKS
CP ATTERBURY + SUNNY     88  63  42 SW7       30.09S
COLUMBUS       MOSUNNY   86  66  51 S8        30.08F
INDIANAPOLIS   MOSUNNY   85  64  49 SW9       30.07F
6HR MIN TEMP:  71; 6HR MAX TEMP:  86;

-EAGLE CREEK   MOSUNNY   85  63  47 SW9       30.07F
6HR MIN TEMP:  69; 6HR MAX TEMP:  85;

KOKOMO *+      MOSUNNY   88  68  51 SW9       30.07S
MARION +       MOSUNNY   84  65  53 W7        30.08S
MT COMFORT *+  SUNNY     88  68  51 SW8       30.09R
SHELBYVILLE    MOSUNNY   86  65  49 W12       30.08F
6HR MIN TEMP:  68; 6HR MAX TEMP:  88;

ZIONSVILLE +   SUNNY     86  64  47 SW10      30.08F
6HR MIN TEMP:  66; 6HR MAX TEMP:  86;


$$

INZ033-034-041-042-049-050-058-059-221900-
EAST CENTRAL INDIANA

CITY           SKY/WX    TMP DP  RH WIND       PRES   REMARKS
MUNCIE         MOSUNNY   85  63  47 W10       30.08S
6HR MIN TEMP:  70; 6HR MAX TEMP:  86;


$$

INZ060-061-067>069-081>083-085>088-221900-
SOUTHWEST INDIANA

CITY           SKY/WX    TMP DP  RH WIND       PRES   REMARKS
EVANSVILLE     MOSUNNY   88  65  46 W3        30.08F
6HR MIN TEMP:  70; 6HR MAX TEMP:  91;

HUNTINGBURG *+ MOSUNNY   90  68  48 W8        30.09F
6HR MIN TEMP:  66; 6HR MAX TEMP:  90;

WASHINGTON +   PTSUNNY   85  71  61 W3        30.07F
6HR MIN TEMP:  65; 6HR MAX TEMP:  86;


$$

INZ062-063-066-070>080-084-089>092-221900-
SOUTH CENTRAL AND SOUTHEAST INDIANA

CITY           SKY/WX    TMP DP  RH WIND       PRES   REMARKS
BLOOMINGTON    MOSUNNY   86  66  51 SW10      30.09F
6HR MIN TEMP:  66; 6HR MAX TEMP:  86;

SEYMOUR +      SUNNY     84  52  32 SW6       30.08F

$$




USA.gov is the U.S. government's official web portal to all federal, state and local government web resources and services.